星链-11358 (STARLINK-11358)

导读 | 豆包AI

STARLINK-11358是美国SpaceX星链(Starlink)项目的卫星,于2025年1月10日发射升空,属于星链星座扩容的组网卫星,旨在为全球提供高速低延迟的卫星互联网服务,尤其能为偏远地区、海上和航空等传统网络难以覆盖的场景提供连接支持,是星链低轨卫星互联网星座建设进程中的组成单元。

基本信息
目录编号:
62558
目录名称:
STARLINK-11358
国际标识:
2025-006E
轨道中心:
EARTH
卫星名称:
星链-11358
卫星全名:
星链-11358 (STARLINK-11358)
卫星状态:
在轨 (已飞行429 天)
发射日期:
2025-01-10 UTC
国别 :
美国 (US)
星等 :
--
轨道信息
数据来源 国际轨道数据
星历时间: 2026-03-14T19:05:08+0800
17小时前
查看轨道信息
半长轴: 6734.605km
偏心率: 0.0002416
轨道倾角: 43.002°
近地点辐角 256.705°
升交点赤经 111.069°
平近点角 103.355°
近地点: 354.84km
远地点: 358.096km
周期: 91.670分钟
每日圈数: 15.708495
详细信息
固有亮度:
5
最大亮度:
2.5
卫星平台:
Starlink V1.0
覆盖范围:
全球
运营商:
太空探索技术公司
运营商所在国:
美国
制造商(研发单位):
太空探索技术公司
制造商所在国:
美国
使用方式:
暂无
卫星简介
Starlink 计划是 SpaceX 推出的全球卫星互联网项目,通过发射低轨道卫星,为全球尤其是偏远地区提供高速、低延迟的互联网服务。自 2019 年起,Starlink 已部署数千颗卫星,旨在缩小全球数字鸿沟,推动互联网普及。该项目还为军事、航空等行业提供通信支持,带来广泛经济效益。
2D轨道图
3D轨道图
轨道高度分析图
轨道倾角分析图
轨道综合分析图
查看轨道综合分析图